Location: Maccacari
(45.1333°N, 11.1333°E)
Time: 00:52:36
(UTC+00:00)

A-11 Canister half - Pass Details

Date: 27 January 2021
Orbit: 1525 x 1684 km, 47.3° (Epoch: 07 March)

Event Time Altitude Azimuth Distance (km) Brightness Sun altitude
Rises 15:26:16 0° 267° (W) 4,683 12.7 6.8°
Reaches altitude 10° 15:29:17 10° 269° (W) 3,711 12.1 6.3°
Maximum altitude 15:38:43 79° 356° (N) 1,595 9.2 4.9°
Drops below altitude 10° 15:48:27 10° 84° (E) 3,825 10.5 3.5°
Sets 15:51:37 0° 86° (E) 4,833 11.0 3.0°
